Location: Borger
(52.9222°N, 6.7926°E)
Time: 14:54:45
(UTC+00:00)

Cosmos 1302 Rocket - Pass Details

Date: 15 May 2026
Orbit: 752 x 772 km, 74.0° (Epoch: 10 June)

Event Time Altitude Azimuth Distance (km) Brightness Sun altitude
Rises 20:11:22 0° 210° (SSW) 3,193 7.1 -6.3°
Reaches altitude 10° 20:13:43 10° 212° (SSW) 2,274 6.3 -6.6°
Maximum altitude 20:18:52 74° 297° (WNW) 789 4.3 -7.1°
Drops below altitude 10° 20:24:05 10° 23° (NNE) 2,299 6.8 -7.7°
Sets 20:26:29 0° 26° (NNE) 3,232 7.5 -7.9°
